NYCMetNet The Optical Remote Sensing Laboratory of The City College of New York
138th St. & Convent Ave., New York, NY 10031

NYCMetNet » NDFD Forecasts
Tabular summaries are available for the future 7-days for selected surface stations within the NYC MetNet.  All data times are standardized to EST, meaning that daylight savings time is not applied. Forecasts are typically generated every three hours for the next three days, and every six hours for the four days thereafter.  Remember that the most recent future forecast may not be displayed if the NDFD ingest process has not yet reported their data or collection process has not yet finished the multiple file transfers from its collection source.
Forecast Location: KNYC - Central Park, New York NY Print Table » Print Plot » Show Plot » 
Station Date Time Temp (F) RH (%) Wind Speed (mph) Wind Dir (from) Cloud Cover (%) Rain Probability (%)
KNYC 08/23/2016 1:00 PM 78.0 36 3.4 W(270°) 2 49
KNYC 08/23/2016 4:00 PM 78.0 37 8.0 SSW(210°) 2 49
KNYC 08/23/2016 7:00 PM 73.0 51 6.9 SSE(190°) 2 54
KNYC 08/23/2016 10:00 PM 70.1 58 6.9 SSW(210°) 0 54
KNYC 08/24/2016 01:00 AM 67.0 70 5.8 SW(230°) 1 56
KNYC 08/24/2016 04:00 AM 65.9 75 4.7 WSW(260°) 0 58
KNYC 08/24/2016 07:00 AM 70.1 68 4.7 W(270°) 2 58
KNYC 08/24/2016 10:00 AM 80.0 47 5.8 WSW(260°) 3 58
KNYC 08/24/2016 1:00 PM 83.9 39 8.0 SSE(190°) 9 56
KNYC 08/24/2016 4:00 PM 83.0 42 11.4 S(180°) 6 58
KNYC 08/24/2016 7:00 PM 76.9 55 9.2 SSE(190°) 3 59
KNYC 08/24/2016 10:00 PM 73.0 63 8.0 SSE(200°) 4 59
KNYC 08/25/2016 01:00 AM 70.1 73 6.9 SSW(220°) 7 61
KNYC 08/25/2016 04:00 AM 69.0 75 5.8 SW(230°) 8 61
KNYC 08/25/2016 07:00 AM 71.0 70 5.8 SW(230°) 9 61
KNYC 08/25/2016 10:00 AM 80.0 52 9.2 SSW(210°) 16 61
KNYC 08/25/2016 1:00 PM 83.9 46 11.4 SSE(190°) 33 61
KNYC 08/25/2016 4:00 PM 83.0 50 12.7 SSE(190°) 42 63
KNYC 08/25/2016 7:00 PM 79.1 60 13.9 SSE(190°) 51 63
KNYC 08/26/2016 01:00 AM 74.9 73 6.9 SSW(210°) 44 65
KNYC 08/26/2016 07:00 AM 76.0 74 6.9 SW(230°) 43 67
KNYC 08/26/2016 1:00 PM 89.0 49 5.8 SW(245°) 52 67
KNYC 08/26/2016 7:00 PM 83.0 61 2.2 W(270°) 36 67
KNYC 08/27/2016 01:00 AM 74.9 70 4.7 NNW(350°) 25 65
KNYC 08/27/2016 07:00 AM 74.9 66 4.7 N(0°) 25 63
KNYC 08/27/2016 1:00 PM 85.9 41 4.7 NNE(30°) 21 59
KNYC 08/27/2016 7:00 PM 80.0 54 2.2 ENE(70°) 14 61
KNYC 08/28/2016 01:00 AM 73.0 68 2.2 NNE(30°) 22 61
KNYC 08/28/2016 07:00 AM 73.0 71 4.7 NE(50°) 25 63
KNYC 08/28/2016 1:00 PM 83.9 46 5.8 ENE(110°) 24 61
KNYC 08/28/2016 7:00 PM 79.1 56 5.8 SE(140°) 20 61
KNYC 08/29/2016 01:00 AM 74.0 71 2.2 SE(140°) 23 63
KNYC 08/29/2016 07:00 AM 74.0 73 2.2 ENE(100°) 51 65
KNYC 08/29/2016 1:00 PM 83.9 49 6.9 SE(150°) 51 63
KNYC 08/29/2016 7:00 PM 80.0 58 6.9 SSE(160°) 36 63
Forecast Location: KLGA - LaGuardia Airport, Flushing NY, 11371 Print Table » Print Plot » Show Plot » 
Station Date Time Temp (F) RH (%) Wind Speed (mph) Wind Dir (from) Cloud Cover (%) Rain Probability (%)
KLGA 08/23/2016 10:00 AM 76.0 40 3.4 NNW(350°) 2 49
KLGA 08/23/2016 1:00 PM 79.1 34 3.4 W(270°) 2 47
KLGA 08/23/2016 4:00 PM 79.1 36 8.0 SSW(210°) 3 49
KLGA 08/23/2016 7:00 PM 74.0 50 8.0 SSE(190°) 3 54
KLGA 08/23/2016 10:00 PM 71.0 56 6.9 SSW(210°) 0 54
KLGA 08/24/2016 01:00 AM 69.0 65 6.9 SW(230°) 0 56
KLGA 08/24/2016 04:00 AM 67.9 70 4.7 WSW(260°) 0 58
KLGA 08/24/2016 07:00 AM 71.0 63 4.7 W(270°) 3 58
KLGA 08/24/2016 10:00 AM 80.0 47 5.8 WSW(260°) 3 58
KLGA 08/24/2016 1:00 PM 83.9 36 8.0 SSE(190°) 9 54
KLGA 08/24/2016 4:00 PM 83.0 38 11.4 S(180°) 7 54
KLGA 08/24/2016 7:00 PM 78.0 50 10.3 SSE(190°) 3 58
KLGA 08/24/2016 10:00 PM 74.0 61 8.0 SSW(210°) 4 59
KLGA 08/25/2016 01:00 AM 72.0 66 6.9 SSW(220°) 6 59
KLGA 08/25/2016 04:00 AM 70.1 72 5.8 SW(230°) 8 61
KLGA 08/25/2016 07:00 AM 73.0 65 6.9 SW(230°) 9 61
KLGA 08/25/2016 10:00 AM 81.0 51 9.2 SSW(210°) 15 61
KLGA 08/25/2016 1:00 PM 83.9 46 12.7 SSE(190°) 34 61
KLGA 08/25/2016 4:00 PM 83.0 49 13.9 SSE(190°) 45 61
KLGA 08/25/2016 7:00 PM 79.1 60 13.9 SSE(190°) 55 63
KLGA 08/26/2016 01:00 AM 76.9 68 8.0 SSW(210°) 43 65
KLGA 08/26/2016 07:00 AM 76.9 71 6.9 SW(230°) 42 67
KLGA 08/26/2016 1:00 PM 89.0 49 5.8 SW(245°) 51 67
KLGA 08/26/2016 7:00 PM 83.0 63 2.2 W(270°) 35 68
KLGA 08/27/2016 01:00 AM 76.0 68 4.7 NNW(350°) 25 65
KLGA 08/27/2016 07:00 AM 76.0 64 5.8 N(0°) 25 63
KLGA 08/27/2016 1:00 PM 85.0 42 4.7 NNE(30°) 21 59
KLGA 08/27/2016 7:00 PM 80.0 54 2.2 ENE(80°) 14 61
KLGA 08/28/2016 01:00 AM 73.0 70 2.2 NNE(40°) 22 63
KLGA 08/28/2016 07:00 AM 74.9 66 5.8 NE(50°) 25 63
KLGA 08/28/2016 1:00 PM 85.0 44 6.9 ENE(110°) 24 61
KLGA 08/28/2016 7:00 PM 80.0 56 5.8 SE(140°) 20 63
KLGA 08/29/2016 01:00 AM 74.0 71 2.2 SE(140°) 23 63
KLGA 08/29/2016 07:00 AM 74.0 73 2.2 ENE(100°) 51 65
KLGA 08/29/2016 1:00 PM 83.9 49 6.9 SE(150°) 51 63
KLGA 08/29/2016 7:00 PM 80.0 60 6.9 SSE(160°) 36 65
Forecast Location: KJFK - JFK Airport, Jamaica NY, 11430 Print Table » Print Plot » Show Plot » 
Station Date Time Temp (F) RH (%) Wind Speed (mph) Wind Dir (from) Cloud Cover (%) Rain Probability (%)
KJFK 08/23/2016 10:00 AM 74.9 39 4.7 NW(330°) 2 49
KJFK 08/23/2016 1:00 PM 76.9 37 6.9 SSW(210°) 2 49
KJFK 08/23/2016 4:00 PM 78.0 40 9.2 SSE(200°) 3 52
KJFK 08/23/2016 7:00 PM 73.0 57 9.2 SSE(190°) 3 56
KJFK 08/23/2016 10:00 PM 70.1 65 8.0 SSW(210°) 1 58
KJFK 08/24/2016 01:00 AM 67.9 73 8.0 SW(230°) 0 58
KJFK 08/24/2016 04:00 AM 65.0 80 6.9 WSW(260°) 0 58
KJFK 08/24/2016 07:00 AM 69.0 75 5.8 W(270°) 3 61
KJFK 08/24/2016 10:00 AM 78.0 52 5.8 SW(240°) 2 58
KJFK 08/24/2016 1:00 PM 82.0 47 9.2 SSE(190°) 8 59
KJFK 08/24/2016 4:00 PM 81.0 50 13.9 S(180°) 6 61
KJFK 08/24/2016 7:00 PM 76.0 64 13.9 SSE(190°) 3 63
KJFK 08/24/2016 10:00 PM 73.0 73 9.2 SSW(210°) 4 63
KJFK 08/25/2016 01:00 AM 71.0 75 6.9 SW(230°) 6 63
KJFK 08/25/2016 04:00 AM 69.0 80 8.0 SW(240°) 8 63
KJFK 08/25/2016 07:00 AM 71.0 78 8.0 SW(230°) 9 63
KJFK 08/25/2016 10:00 AM 79.1 60 11.4 SSW(210°) 10 63
KJFK 08/25/2016 1:00 PM 82.0 54 13.9 SSE(190°) 24 63
KJFK 08/25/2016 4:00 PM 82.0 56 17.2 SSE(190°) 36 65
KJFK 08/25/2016 7:00 PM 78.0 67 17.2 SSE(190°) 48 65
KJFK 08/26/2016 01:00 AM 74.0 81 10.3 SSW(210°) 41 67
KJFK 08/26/2016 07:00 AM 74.9 82 8.0 SSW(220°) 39 68
KJFK 08/26/2016 1:00 PM 87.0 59 9.2 SW(235°) 51 70
KJFK 08/26/2016 7:00 PM 82.0 69 4.7 SW(240°) 33 70
KJFK 08/27/2016 01:00 AM 74.9 75 6.9 NNW(350°) 27 67
KJFK 08/27/2016 07:00 AM 74.0 73 8.0 N(0°) 27 65
KJFK 08/27/2016 1:00 PM 85.0 49 8.0 NNE(30°) 20 63
KJFK 08/27/2016 7:00 PM 79.1 62 3.4 E(90°) 14 65
KJFK 08/28/2016 01:00 AM 73.0 76 4.7 NNE(40°) 20 65
KJFK 08/28/2016 07:00 AM 73.0 76 6.9 NE(50°) 24 65
KJFK 08/28/2016 1:00 PM 83.9 53 10.3 ENE(110°) 22 65
KJFK 08/28/2016 7:00 PM 78.0 64 8.0 ESE(130°) 19 65
KJFK 08/29/2016 01:00 AM 73.0 79 4.7 ESE(130°) 21 65
KJFK 08/29/2016 07:00 AM 73.0 79 2.2 ENE(100°) 44 65
KJFK 08/29/2016 1:00 PM 82.0 58 10.3 SE(150°) 44 65
KJFK 08/29/2016 7:00 PM 79.1 67 9.2 SSE(160°) 34 67
Forecast Location: GiantsStadium - East Rutherford, NJ Print Table » Print Plot » Show Plot » 
Station Date Time Temp (F) RH (%) Wind Speed (mph) Wind Dir (from) Cloud Cover (%) Rain Probability (%)
GiantsStadium 08/23/2016 10:00 AM 74.0 42 3.4 NW(330°) 1 49
GiantsStadium 08/23/2016 1:00 PM 79.1 35 4.7 W(270°) 1 49
GiantsStadium 08/23/2016 4:00 PM 80.0 33 6.9 SW(230°) 2 49
GiantsStadium 08/23/2016 7:00 PM 72.0 49 5.8 SSE(190°) 1 52
GiantsStadium 08/23/2016 10:00 PM 67.9 65 4.7 SSW(220°) 1 56
GiantsStadium 08/24/2016 01:00 AM 64.0 75 4.7 SW(230°) 1 56
GiantsStadium 08/24/2016 04:00 AM 62.0 83 3.4 WSW(260°) 0 56
GiantsStadium 08/24/2016 07:00 AM 67.0 75 3.4 W(270°) 2 58
GiantsStadium 08/24/2016 10:00 AM 79.1 48 3.4 WSW(250°) 3 58
GiantsStadium 08/24/2016 1:00 PM 83.9 38 8.0 SSE(200°) 8 56
GiantsStadium 08/24/2016 4:00 PM 83.9 38 9.2 SSE(190°) 5 56
GiantsStadium 08/24/2016 7:00 PM 76.9 53 8.0 SSE(190°) 3 58
GiantsStadium 08/24/2016 10:00 PM 71.0 68 4.7 SSE(190°) 5 59
GiantsStadium 08/25/2016 01:00 AM 69.0 75 3.4 SSW(210°) 7 61
GiantsStadium 08/25/2016 04:00 AM 65.9 83 3.4 SSW(210°) 9 61
GiantsStadium 08/25/2016 07:00 AM 70.1 72 4.7 SSW(220°) 10 61
GiantsStadium 08/25/2016 10:00 AM 80.0 52 8.0 SSW(210°) 15 61
GiantsStadium 08/25/2016 1:00 PM 85.0 43 10.3 SSE(200°) 36 59
GiantsStadium 08/25/2016 4:00 PM 85.0 46 10.3 SSE(200°) 45 61
GiantsStadium 08/25/2016 7:00 PM 81.0 56 10.3 SSE(190°) 56 63
GiantsStadium 08/26/2016 01:00 AM 74.0 75 6.9 SSW(210°) 45 65
GiantsStadium 08/26/2016 07:00 AM 76.0 76 5.8 SW(230°) 44 67
GiantsStadium 08/26/2016 1:00 PM 91.0 46 4.7 WSW(255°) 53 67
GiantsStadium 08/26/2016 7:00 PM 83.9 57 2.2 WSW(290°) 37 67
GiantsStadium 08/27/2016 01:00 AM 74.0 70 4.7 NNW(350°) 23 63
GiantsStadium 08/27/2016 07:00 AM 73.0 71 4.7 NNW(360°) 23 63
GiantsStadium 08/27/2016 1:00 PM 87.0 38 3.4 N(20°) 21 58
GiantsStadium 08/27/2016 7:00 PM 80.0 52 2.2 ENE(70°) 15 61
GiantsStadium 08/28/2016 01:00 AM 71.0 73 2.2 NNE(30°) 24 61
GiantsStadium 08/28/2016 07:00 AM 71.0 76 4.7 NE(50°) 25 63
GiantsStadium 08/28/2016 1:00 PM 85.0 44 4.7 ESE(120°) 25 61
GiantsStadium 08/28/2016 7:00 PM 79.1 56 4.7 SE(140°) 22 61
GiantsStadium 08/29/2016 01:00 AM 72.0 76 2.2 SE(140°) 24 63
GiantsStadium 08/29/2016 07:00 AM 72.0 79 2.2 ESE(120°) 53 65
GiantsStadium 08/29/2016 1:00 PM 85.9 45 5.8 SSE(160°) 53 61
GiantsStadium 08/29/2016 7:00 PM 80.0 58 5.8 SSE(160°) 37 63
Forecast Location: D1086 - Northport NY, 11768 Print Table » Print Plot » Show Plot » 
Station Date Time Temp (F) RH (%) Wind Speed (mph) Wind Dir (from) Cloud Cover (%) Rain Probability (%)
D1086 08/23/2016 10:00 AM 73.0 47 4.7 NNW(350°) 1 52
D1086 08/23/2016 1:00 PM 76.9 39 4.7 W(270°) 1 49
D1086 08/23/2016 4:00 PM 76.9 37 5.8 SW(230°) 2 49
D1086 08/23/2016 7:00 PM 70.1 63 9.2 SSE(200°) 1 56
D1086 08/23/2016 10:00 PM 65.9 80 8.0 SSW(210°) 0 59
D1086 08/24/2016 01:00 AM 65.0 87 8.0 SW(230°) 1 61
D1086 08/24/2016 04:00 AM 64.0 83 6.9 WSW(260°) 0 58
D1086 08/24/2016 07:00 AM 67.9 93 4.7 W(270°) 2 65
D1086 08/24/2016 10:00 AM 78.0 66 5.8 WSW(250°) 2 65
D1086 08/24/2016 1:00 PM 82.0 50 6.9 SSE(200°) 6 61
D1086 08/24/2016 4:00 PM 80.0 52 10.3 SSE(200°) 3 61
D1086 08/24/2016 7:00 PM 74.0 68 9.2 SSE(200°) 3 63
D1086 08/24/2016 10:00 PM 70.1 81 5.8 SSW(210°) 3 63
D1086 08/25/2016 01:00 AM 67.9 81 5.8 SW(230°) 6 61
D1086 08/25/2016 04:00 AM 65.9 86 6.9 SW(230°) 7 61
D1086 08/25/2016 07:00 AM 70.1 75 6.9 SW(240°) 9 61
D1086 08/25/2016 10:00 AM 80.0 56 9.2 SSW(220°) 10 63
D1086 08/25/2016 1:00 PM 82.0 56 11.4 SSE(200°) 10 65
D1086 08/25/2016 4:00 PM 81.0 58 12.7 SSE(200°) 24 65
D1086 08/25/2016 7:00 PM 76.0 71 13.9 SSE(200°) 45 65
D1086 08/26/2016 01:00 AM 73.0 83 11.4 SSW(210°) 42 67
D1086 08/26/2016 07:00 AM 74.9 84 10.3 SW(230°) 42 70
D1086 08/26/2016 1:00 PM 87.0 61 5.8 SW(235°) 51 72
D1086 08/26/2016 7:00 PM 81.0 72 3.4 SW(240°) 33 70
D1086 08/27/2016 01:00 AM 73.0 78 8.0 NNW(350°) 26 65
D1086 08/27/2016 07:00 AM 74.0 73 9.2 N(0°) 26 65
D1086 08/27/2016 1:00 PM 85.0 51 3.4 N(10°) 20 65
D1086 08/27/2016 7:00 PM 76.9 68 3.4 ENE(80°) 15 65
D1086 08/28/2016 01:00 AM 70.1 81 4.7 NNE(40°) 22 63
D1086 08/28/2016 07:00 AM 72.0 78 8.0 NE(50°) 27 65
D1086 08/28/2016 1:00 PM 83.0 54 5.8 ENE(110°) 24 65
D1086 08/28/2016 7:00 PM 76.0 69 6.9 SE(140°) 24 65
D1086 08/29/2016 01:00 AM 69.0 87 4.7 ESE(130°) 23 65
D1086 08/29/2016 07:00 AM 72.0 84 4.7 ENE(100°) 41 67
D1086 08/29/2016 1:00 PM 82.0 58 6.9 SSE(160°) 41 65
D1086 08/29/2016 7:00 PM 76.0 73 8.0 SSE(160°) 34 67
Forecast Location: C9714 - Madison Ave & 89th St., New York NY Print Table » Print Plot » Show Plot » 
Station Date Time Temp (F) RH (%) Wind Speed (mph) Wind Dir (from) Cloud Cover (%) Rain Probability (%)
C9714 08/23/2016 10:00 AM 74.9 41 3.4 NNW(350°) 1 49
C9714 08/23/2016 1:00 PM 78.0 36 3.4 W(270°) 2 49
C9714 08/23/2016 4:00 PM 78.0 37 8.0 SSW(210°) 2 49
C9714 08/23/2016 7:00 PM 73.0 51 6.9 SSE(190°) 2 54
C9714 08/23/2016 10:00 PM 70.1 58 6.9 SSW(210°) 0 54
C9714 08/24/2016 01:00 AM 67.0 70 5.8 SW(230°) 1 56
C9714 08/24/2016 04:00 AM 65.9 75 4.7 WSW(260°) 0 58
C9714 08/24/2016 07:00 AM 70.1 68 4.7 W(270°) 2 58
C9714 08/24/2016 10:00 AM 80.0 47 5.8 WSW(260°) 3 58
C9714 08/24/2016 1:00 PM 83.9 39 8.0 SSE(190°) 9 56
C9714 08/24/2016 4:00 PM 83.0 42 11.4 S(180°) 6 58
C9714 08/24/2016 7:00 PM 76.9 55 9.2 SSE(190°) 3 59
C9714 08/24/2016 10:00 PM 73.0 63 8.0 SSE(200°) 4 59
C9714 08/25/2016 01:00 AM 70.1 73 6.9 SSW(220°) 7 61
C9714 08/25/2016 04:00 AM 69.0 75 5.8 SW(230°) 8 61
C9714 08/25/2016 07:00 AM 71.0 70 5.8 SW(230°) 9 61
C9714 08/25/2016 10:00 AM 80.0 52 9.2 SSW(210°) 16 61
C9714 08/25/2016 1:00 PM 83.9 46 11.4 SSE(190°) 33 61
C9714 08/25/2016 4:00 PM 83.0 50 12.7 SSE(190°) 42 63
C9714 08/25/2016 7:00 PM 79.1 60 13.9 SSE(190°) 51 63
C9714 08/26/2016 01:00 AM 74.9 73 6.9 SSW(210°) 44 65
C9714 08/26/2016 07:00 AM 76.0 74 6.9 SW(230°) 43 67
C9714 08/26/2016 1:00 PM 89.0 49 5.8 SW(245°) 52 67
C9714 08/26/2016 7:00 PM 83.0 61 2.2 W(270°) 36 67
C9714 08/27/2016 01:00 AM 74.9 70 4.7 NNW(350°) 25 65
C9714 08/27/2016 07:00 AM 74.9 66 4.7 N(0°) 25 63
C9714 08/27/2016 1:00 PM 85.9 41 4.7 NNE(30°) 21 59
C9714 08/27/2016 7:00 PM 80.0 54 2.2 ENE(70°) 14 61
C9714 08/28/2016 01:00 AM 73.0 68 2.2 NNE(30°) 22 61
C9714 08/28/2016 07:00 AM 73.0 71 4.7 NE(50°) 25 63
C9714 08/28/2016 1:00 PM 83.9 46 5.8 ENE(110°) 24 61
C9714 08/28/2016 7:00 PM 79.1 56 5.8 SE(140°) 20 61
C9714 08/29/2016 01:00 AM 74.0 71 2.2 SE(140°) 23 63
C9714 08/29/2016 07:00 AM 74.0 73 2.2 ENE(100°) 51 65
C9714 08/29/2016 1:00 PM 83.9 49 6.9 SE(150°) 51 63
C9714 08/29/2016 7:00 PM 80.0 58 6.9 SSE(160°) 36 63
Forecast Location: TPT01 - Hunt's Point, South Bronx NY, 10474 Print Table » Print Plot » Show Plot » 
Station Date Time Temp (F) RH (%) Wind Speed (mph) Wind Dir (from) Cloud Cover (%) Rain Probability (%)
TPT01 08/23/2016 10:00 AM 74.9 42 4.7 NNW(360°) 2 50
TPT01 08/23/2016 1:00 PM 78.0 36 3.4 WSW(280°) 2 49
TPT01 08/23/2016 4:00 PM 78.0 37 6.9 SSW(210°) 3 49
TPT01 08/23/2016 7:00 PM 73.0 51 6.9 SSE(190°) 2 54
TPT01 08/23/2016 10:00 PM 70.1 60 6.9 SSW(210°) 0 56
TPT01 08/24/2016 01:00 AM 67.9 70 5.8 SW(230°) 1 58
TPT01 08/24/2016 04:00 AM 65.9 75 4.7 WSW(260°) 0 58
TPT01 08/24/2016 07:00 AM 70.1 68 4.7 W(270°) 3 58
TPT01 08/24/2016 10:00 AM 80.0 48 5.8 WSW(260°) 3 58
TPT01 08/24/2016 1:00 PM 83.0 39 8.0 SSE(190°) 9 56
TPT01 08/24/2016 4:00 PM 83.0 41 11.4 S(180°) 6 56
TPT01 08/24/2016 7:00 PM 76.9 55 10.3 SSE(190°) 3 59
TPT01 08/24/2016 10:00 PM 73.0 66 8.0 SSE(200°) 4 61
TPT01 08/25/2016 01:00 AM 70.1 73 5.8 SSW(220°) 6 61
TPT01 08/25/2016 04:00 AM 69.0 75 5.8 SW(230°) 8 61
TPT01 08/25/2016 07:00 AM 72.0 68 5.8 SW(230°) 9 61
TPT01 08/25/2016 10:00 AM 80.0 52 9.2 SSW(210°) 15 61
TPT01 08/25/2016 1:00 PM 83.9 46 11.4 SSE(190°) 34 61
TPT01 08/25/2016 4:00 PM 83.0 49 12.7 SSE(190°) 45 61
TPT01 08/25/2016 7:00 PM 79.1 58 13.9 SSE(190°) 56 63
TPT01 08/26/2016 01:00 AM 76.0 70 6.9 SSW(210°) 44 65
TPT01 08/26/2016 07:00 AM 76.0 74 6.9 SW(230°) 43 67
TPT01 08/26/2016 1:00 PM 89.0 49 5.8 SW(245°) 52 67
TPT01 08/26/2016 7:00 PM 83.0 61 2.2 W(270°) 36 67
TPT01 08/27/2016 01:00 AM 74.9 70 4.7 NNW(350°) 25 65
TPT01 08/27/2016 07:00 AM 74.9 66 5.8 N(0°) 25 63
TPT01 08/27/2016 1:00 PM 85.9 41 4.7 N(20°) 21 59
TPT01 08/27/2016 7:00 PM 80.0 54 2.2 ENE(80°) 14 61
TPT01 08/28/2016 01:00 AM 72.0 73 2.2 NNE(30°) 23 63
TPT01 08/28/2016 07:00 AM 73.0 71 5.8 NE(50°) 25 63
TPT01 08/28/2016 1:00 PM 83.9 46 6.9 ESE(120°) 24 61
TPT01 08/28/2016 7:00 PM 79.1 56 5.8 SE(140°) 21 61
TPT01 08/29/2016 01:00 AM 73.0 73 2.2 SE(140°) 23 63
TPT01 08/29/2016 07:00 AM 73.0 76 2.2 ENE(100°) 51 65
TPT01 08/29/2016 1:00 PM 83.9 49 6.9 SSE(160°) 51 63
TPT01 08/29/2016 7:00 PM 79.1 60 6.9 SSE(160°) 36 63
Forecast Location: CNY01 - CCNY 138th St & Convent Ave., New York NY, 10031 Print Table » Print Plot » Show Plot » 
Station Date Time Temp (F) RH (%) Wind Speed (mph) Wind Dir (from) Cloud Cover (%) Rain Probability (%)
CNY01 08/23/2016 10:00 AM 76.0 41 3.4 NNW(350°) 1 50
CNY01 08/23/2016 1:00 PM 79.1 35 3.4 W(270°) 1 49
CNY01 08/23/2016 4:00 PM 79.1 35 6.9 SSW(220°) 2 49
CNY01 08/23/2016 7:00 PM 73.0 50 6.9 SSE(190°) 2 52
CNY01 08/23/2016 10:00 PM 70.1 58 5.8 SSW(220°) 0 54
CNY01 08/24/2016 01:00 AM 67.0 70 5.8 SW(230°) 1 56
CNY01 08/24/2016 04:00 AM 65.0 77 4.7 WSW(260°) 0 58
CNY01 08/24/2016 07:00 AM 70.1 68 4.7 WSW(280°) 3 58
CNY01 08/24/2016 10:00 AM 80.0 48 5.8 WSW(260°) 3 58
CNY01 08/24/2016 1:00 PM 83.9 38 8.0 SSE(200°) 9 56
CNY01 08/24/2016 4:00 PM 83.0 39 10.3 SSE(190°) 6 56
CNY01 08/24/2016 7:00 PM 78.0 52 9.2 SSE(190°) 3 58
CNY01 08/24/2016 10:00 PM 73.0 63 6.9 SSE(200°) 4 59
CNY01 08/25/2016 01:00 AM 70.1 73 5.8 SSW(220°) 7 61
CNY01 08/25/2016 04:00 AM 69.0 75 5.8 SW(230°) 8 61
CNY01 08/25/2016 07:00 AM 71.0 70 5.8 SW(230°) 10 61
CNY01 08/25/2016 10:00 AM 80.0 52 8.0 SSW(210°) 16 61
CNY01 08/25/2016 1:00 PM 83.9 46 10.3 SSE(190°) 34 61
CNY01 08/25/2016 4:00 PM 83.0 49 11.4 SSE(190°) 43 61
CNY01 08/25/2016 7:00 PM 79.1 60 11.4 SSE(190°) 53 63
CNY01 08/26/2016 01:00 AM 74.9 73 6.9 SSW(210°) 44 65
CNY01 08/26/2016 07:00 AM 76.0 74 6.9 SW(230°) 43 67
CNY01 08/26/2016 1:00 PM 90.0 48 5.8 WSW(255°) 53 67
CNY01 08/26/2016 7:00 PM 83.0 61 2.2 WSW(280°) 36 67
CNY01 08/27/2016 01:00 AM 74.9 70 5.8 NNW(350°) 25 65
CNY01 08/27/2016 07:00 AM 74.9 66 5.8 N(0°) 25 63
CNY01 08/27/2016 1:00 PM 85.9 41 4.7 N(20°) 21 59
CNY01 08/27/2016 7:00 PM 80.0 52 2.2 ENE(70°) 14 61
CNY01 08/28/2016 01:00 AM 73.0 68 2.2 NNE(30°) 23 61
CNY01 08/28/2016 07:00 AM 73.0 71 5.8 NE(50°) 25 63
CNY01 08/28/2016 1:00 PM 83.9 46 5.8 ESE(120°) 25 61
CNY01 08/28/2016 7:00 PM 79.1 56 5.8 SE(140°) 21 61
CNY01 08/29/2016 01:00 AM 74.0 71 2.2 SE(140°) 23 63
CNY01 08/29/2016 07:00 AM 74.0 73 2.2 ENE(100°) 51 65
CNY01 08/29/2016 1:00 PM 85.0 48 6.9 SSE(160°) 51 63
CNY01 08/29/2016 7:00 PM 80.0 58 6.9 SSE(160°) 36 63
Forecast Location: HOPTA - Hopatcong, NJ 07843 Print Table » Print Plot » Show Plot » 
Station Date Time Temp (F) RH (%) Wind Speed (mph) Wind Dir (from) Cloud Cover (%) Rain Probability (%)
HOPTA 08/23/2016 10:00 AM 71.0 51 2.2 NW(320°) 10 52
HOPTA 08/23/2016 1:00 PM 78.0 40 3.4 WSW(250°) 17 52
HOPTA 08/23/2016 4:00 PM 78.0 45 3.4 SW(240°) 12 54
HOPTA 08/23/2016 7:00 PM 70.1 66 1.1 WSW(250°) 6 58
HOPTA 08/23/2016 10:00 PM 64.0 80 1.1 WNW(310°) 7 58
HOPTA 08/24/2016 01:00 AM 61.1 87 1.1 WSW(260°) 8 56
HOPTA 08/24/2016 04:00 AM 58.9 89 0.0 WSW(280°) 6 56
HOPTA 08/24/2016 07:00 AM 63.0 83 1.1 SW(240°) 3 58
HOPTA 08/24/2016 10:00 AM 76.0 55 2.2 SW(230°) 4 58
HOPTA 08/24/2016 1:00 PM 83.0 43 4.7 SSW(220°) 4 58
HOPTA 08/24/2016 4:00 PM 82.0 47 4.7 SSW(210°) 5 59
HOPTA 08/24/2016 7:00 PM 74.0 64 4.7 S(180°) 5 61
HOPTA 08/24/2016 10:00 PM 67.9 75 3.4 SSE(190°) 7 59
HOPTA 08/25/2016 01:00 AM 64.0 86 3.4 SSW(220°) 8 59
HOPTA 08/25/2016 04:00 AM 62.0 89 4.7 SSW(220°) 22 58
HOPTA 08/25/2016 07:00 AM 65.0 86 4.7 SSW(210°) 36 61
HOPTA 08/25/2016 10:00 AM 74.9 69 8.0 SSW(210°) 41 63
HOPTA 08/25/2016 1:00 PM 80.0 58 10.3 SSE(200°) 45 63
HOPTA 08/25/2016 4:00 PM 81.0 58 10.3 SSE(190°) 58 65
HOPTA 08/25/2016 7:00 PM 76.0 69 6.9 SSE(190°) 70 65
HOPTA 08/26/2016 01:00 AM 70.1 86 6.9 SSW(210°) 69 65
HOPTA 08/26/2016 07:00 AM 72.0 84 2.2 SW(230°) 51 67
HOPTA 08/26/2016 1:00 PM 85.9 54 4.7 WSW(285°) 52 67
HOPTA 08/26/2016 7:00 PM 78.0 71 3.4 WNW(310°) 37 67
HOPTA 08/27/2016 01:00 AM 69.0 83 5.8 NNW(350°) 15 63
HOPTA 08/27/2016 07:00 AM 69.0 78 4.7 NNW(350°) 16 61
HOPTA 08/27/2016 1:00 PM 83.0 44 2.2 NW(330°) 16 58
HOPTA 08/27/2016 7:00 PM 76.0 59 3.4 N(10°) 18 61
HOPTA 08/28/2016 01:00 AM 67.0 81 2.2 NNE(40°) 25 61
HOPTA 08/28/2016 07:00 AM 67.0 81 1.1 NNE(40°) 34 61
HOPTA 08/28/2016 1:00 PM 82.0 47 1.1 ENE(70°) 35 59
HOPTA 08/28/2016 7:00 PM 74.9 66 4.7 SE(140°) 39 63
HOPTA 08/29/2016 01:00 AM 67.0 87 1.1 ESE(130°) 34 63
HOPTA 08/29/2016 07:00 AM 67.9 81 0.0 ENE(110°) 49 61
HOPTA 08/29/2016 1:00 PM 81.0 52 5.8 SSE(190°) 58 61
HOPTA 08/29/2016 7:00 PM 76.0 66 3.4 SE(140°) 53 63
Forecast Location: C0416 - 1st St & 7th Ave, Brooklyn, NY Print Table » Print Plot » Show Plot » 
Station Date Time Temp (F) RH (%) Wind Speed (mph) Wind Dir (from) Cloud Cover (%) Rain Probability (%)
C0416 08/23/2016 10:00 AM 74.0 41 3.4 NNW(340°) 1 49
C0416 08/23/2016 1:00 PM 78.0 36 3.4 SW(240°) 2 49
C0416 08/23/2016 4:00 PM 78.0 40 8.0 SSE(200°) 3 52
C0416 08/23/2016 7:00 PM 72.0 55 8.0 SSE(190°) 2 54
C0416 08/23/2016 10:00 PM 69.0 63 8.0 SSW(220°) 0 56
C0416 08/24/2016 01:00 AM 67.0 68 6.9 SW(230°) 0 56
C0416 08/24/2016 04:00 AM 65.0 77 5.8 WSW(260°) 0 58
C0416 08/24/2016 07:00 AM 69.0 68 5.8 W(270°) 2 58
C0416 08/24/2016 10:00 AM 80.0 45 5.8 WSW(250°) 2 56
C0416 08/24/2016 1:00 PM 83.9 38 9.2 SSE(190°) 9 56
C0416 08/24/2016 4:00 PM 83.0 44 12.7 S(180°) 6 58
C0416 08/24/2016 7:00 PM 76.9 55 10.3 SSE(190°) 3 59
C0416 08/24/2016 10:00 PM 73.0 66 9.2 SSE(200°) 4 61
C0416 08/25/2016 01:00 AM 70.1 73 8.0 SSW(220°) 7 61
C0416 08/25/2016 04:00 AM 67.9 80 6.9 SW(230°) 8 61
C0416 08/25/2016 07:00 AM 71.0 72 6.9 SW(230°) 9 61
C0416 08/25/2016 10:00 AM 82.0 53 9.2 SSW(210°) 14 63
C0416 08/25/2016 1:00 PM 85.9 44 11.4 S(180°) 32 61
C0416 08/25/2016 4:00 PM 85.0 47 12.7 SSE(190°) 41 63
C0416 08/25/2016 7:00 PM 81.0 58 13.9 SSE(190°) 51 65
C0416 08/26/2016 01:00 AM 74.0 75 8.0 SSW(210°) 43 65
C0416 08/26/2016 07:00 AM 74.9 76 6.9 SW(230°) 41 67
C0416 08/26/2016 1:00 PM 90.0 48 5.8 SW(245°) 51 67
C0416 08/26/2016 7:00 PM 83.0 61 2.2 WSW(260°) 35 67
C0416 08/27/2016 01:00 AM 74.9 70 5.8 NNW(350°) 26 65
C0416 08/27/2016 07:00 AM 74.9 66 5.8 N(0°) 26 63
C0416 08/27/2016 1:00 PM 85.9 41 4.7 NNE(30°) 20 59
C0416 08/27/2016 7:00 PM 80.0 54 2.2 E(90°) 14 61
C0416 08/28/2016 01:00 AM 73.0 70 2.2 NNE(40°) 21 63
C0416 08/28/2016 07:00 AM 73.0 71 4.7 NE(50°) 25 63
C0416 08/28/2016 1:00 PM 83.9 46 6.9 ENE(110°) 23 61
C0416 08/28/2016 7:00 PM 79.1 58 5.8 SE(140°) 20 63
C0416 08/29/2016 01:00 AM 73.0 73 2.2 ESE(130°) 22 63
C0416 08/29/2016 07:00 AM 73.0 76 2.2 ENE(110°) 50 65
C0416 08/29/2016 1:00 PM 83.9 49 8.0 SE(150°) 50 63

ESRL/GSD and its data providers disclaim liability of any kind whatsoever, including, without limitation, liability for quality, performance,
merchantability and fitness for a particular purpose arising out of the use or inability to use the data presented herein.
Part of the The City College of New York's Urban Dispersion Program (UDP) for the City of New York © Copyright 2012

Program Code Copyright © Thomas Legbandt 2010 - 2014
About | Contact Us | Security & Privacy | Data Usage